Hourly Data Report for October 10, 2015

All times are specified in Local Standard Time (LST). Add 1 hour to adjust for Daylight Saving Time where and when it is observed.

HALL BEACH A
NUNAVUT

68°46'33.000" N
81°14'33.000" W
9.10 m
2402354
71293
YUX

Download Data

Hourly Data (October 2015)
Hourly Data Report for October 10, 2015
Temp Definition
°C
Dew Point Temp Definition
°C
Rel Hum Definition
%
Wind Dir Definition
10's deg

Wind Spd Definition
km/h
Visibility Definition
km
Stn Press Definition
kPa
Hmdx Definition


Wind Chill Definition


Weather Definition


TIME
00:00 Legend Double Dagger -2.7 -6.5 75 3 34 16.1 100.73   -10 LegendNANA
01:00 Legend Double Dagger -3.2 -6.5 78 2 28 16.1 100.72   -10 LegendNANA
02:00 Legend Double Dagger -3.1 -6.8 76 1 32 16.1 100.72   -11 LegendNANA
03:00 Legend Double Dagger -3.1 -6.8 76 1 34 16.1 100.72   -11 LegendNANA
04:00 Legend Double Dagger -3.5 -6.8 78 1 35 16.1 100.71   -12 LegendNANA
05:00 Legend Double Dagger -3.9 -7.5 76 1 41 16.1 100.69   -13 LegendNANA
06:00 Legend Double Dagger -4.1 -7.9 75 1 39 16.1 100.70   -13 LegendNANA
07:00 Legend Double Dagger -4.1 -8.0 75 36 43 16.1 100.66   -13 LegendNANA
08:00 Legend Double Dagger -4.5 -7.7 79 36 43 16.1 100.62   -14 LegendNANA
09:00 Legend Double Dagger -4.5 -7.4 80 36 43 16.1 100.58   -14 LegendNANA
10:00 Legend Double Dagger -4.4 -7.4 80 36 43 16.1 100.54   -14 LegendNANA
11:00 Legend Double Dagger -4.3 -7.1 81 36 37 16.1 100.51   -13 LegendNANA
12:00 Legend Double Dagger -3.8 -6.4 82 36 34 16.1 100.47   -12 LegendNANA
13:00 Legend Double Dagger -3.9 -6.7 81 36 37 16.1 100.43   -12 LegendNANA
14:00 Legend Double Dagger -3.9 -6.6 82 36 34 16.1 100.43   -12 Snow
15:00 Legend Double Dagger -4.0 -5.6 88 36 34 2.8 100.41   -12 Snow
16:00 Legend Double Dagger -3.8 -5.2 90 36 34 6.4 100.39   -12 Snow
17:00 Legend Double Dagger -3.6 -4.7 92 35 34 2.8 100.37   -12 Snow
18:00 Legend Double Dagger -3.2 -4.2 93 36 35 3.6 100.34   -11 Snow
19:00 Legend Double Dagger -2.6 -3.4 94 36 35 4.0 100.32   -10 Snow
20:00 Legend Double Dagger -1.5 -2.2 95 36 35 4.8 100.30   -9 Snow
21:00 Legend Double Dagger -0.5 -0.9 97 1 32 2.0 100.25   -7 Snow
22:00 Legend Double Dagger 0.4 0.0 97 3 34 2.0 100.20     Snow
23:00 Legend Double Dagger 0.4 -0.5 94 4 35 8.1 100.20     Snow

Notes on Data Quality.

Legend

  • E = Estimated
  • M = Missing
  • NA = Not Available
  • ‡ = Partner data that is not subject to review by the National Climate Archives
Date modified: